When you browse on this site, cookies collect data to enhance your experience and personalize the content and advertising you see.
Visit our Privacy Policy to learn more. By continuing to use the site, you agree to this use of cookies and data.
  • In Hungary
  • List of Countries
  • For 7 days
  • Water Temperature
  • Satellite Maps
  • Weather Map
  • News
  • Weather Widgets
  • user-avatar
    Login

    Hourly Weather Kweta

    Today, 18 June, Tuesday

    Time Temperature Precipitation Wind Pressure Humidity
    00:00 +24°C° 0 mm 2 mps 612 mmHg 32%
    01:00 +23°C° 0 mm 2 mps 612 mmHg 41%
    02:00 +22°C° 0 mm 1 mps 612 mmHg 50%
    03:00 +21°C° 0 mm 1 mps 611 mmHg 59%
    04:00 +21°C° 0 mm 1 mps 611 mmHg 65%
    05:00 +22°C° 0 mm 1 mps 612 mmHg 56%
    06:00 +24°C° 0 mm 1 mps 613 mmHg 47%
    07:00 +26°C° 0 mm 1 mps 614 mmHg 39%
    08:00 +28°C° 0 mm 1 mps 614 mmHg 30%
    09:00 +29°C° 0 mm 1 mps 615 mmHg 20%
    10:00 +31°C° 0 mm 1 mps 616 mmHg 11%
    11:00 +32°C° 0 mm 2 mps 616 mmHg 10%
    12:00 +34°C° 0 mm 3 mps 616 mmHg 9%
    13:00 +35°C° 0 mm 4 mps 615 mmHg 9%
    14:00 +35°C° 0 mm 4 mps 615 mmHg 8%
    15:00 +35°C° 0 mm 5 mps 615 mmHg 7%
    16:00 +34°C° 0 mm 6 mps 614 mmHg 7%
    17:00 +33°C° 0 mm 5 mps 614 mmHg 7%
    18:00 +30°C° 0 mm 3 mps 614 mmHg 8%
    19:00 +29°C° 0 mm 2 mps 613 mmHg 8%
    20:00 +28°C° 0 mm 2 mps 613 mmHg 11%
    21:00 +27°C° 0 mm 2 mps 613 mmHg 13%
    22:00 +26°C° 0 mm 2 mps 613 mmHg 15%
    23:00 +25°C° 0 mm 2 mps 613 mmHg 20%

    Tomorrow, 19 June, Wednesday

    Time Temperature Precipitation Wind Pressure Humidity
    00:00 +24°C° 0 mm 2 mps 612 mmHg 24%
    01:00 +23°C° 0 mm 2 mps 612 mmHg 29%
    02:00 +23°C° 0 mm 2 mps 612 mmHg 35%
    03:00 +21°C° 0 mm 2 mps 612 mmHg 42%
    04:00 +21°C° 0 mm 2 mps 612 mmHg 49%
    05:00 +23°C° 0 mm 2 mps 612 mmHg 47%
    06:00 +25°C° 0 mm 2 mps 613 mmHg 46%
    07:00 +26°C° 0 mm 1 mps 614 mmHg 45%
    08:00 +28°C° 0 mm 2 mps 615 mmHg 34%
    09:00 +30°C° 0 mm 2 mps 615 mmHg 23%
    10:00 +33°C° 0 mm 3 mps 616 mmHg 12%
    11:00 +33°C° 0 mm 3 mps 616 mmHg 12%
    12:00 +34°C° 0 mm 4 mps 616 mmHg 13%
    13:00 +34°C° 0 mm 4 mps 616 mmHg 13%
    14:00 +34°C° 0 mm 4 mps 615 mmHg 12%
    15:00 +34°C° 0 mm 5 mps 615 mmHg 12%
    16:00 +34°C° 0 mm 5 mps 615 mmHg 12%
    17:00 +33°C° 0 mm 4 mps 614 mmHg 13%
    18:00 +30°C° 0 mm 3 mps 614 mmHg 15%
    19:00 +29°C° 0 mm 2 mps 614 mmHg 16%
    20:00 +28°C° 0 mm 2 mps 614 mmHg 23%
    21:00 +27°C° 0 mm 2 mps 614 mmHg 31%
    22:00 +26°C° 0 mm 2 mps 614 mmHg 38%
    23:00 +25°C° 0 mm 2 mps 614 mmHg 44%

    Day after tomorrow, 20 June, Thursday

    Time Temperature Precipitation Wind Pressure Humidity
    00:00 +24°C° 0 mm 2 mps 613 mmHg 50%
    01:00 +24°C° 0 mm 2 mps 613 mmHg 57%
    02:00 +23°C° 0 mm 2 mps 613 mmHg 60%
    03:00 +23°C° 0 mm 2 mps 613 mmHg 63%
    04:00 +21°C° 0 mm 2 mps 613 mmHg 66%
    05:00 +23°C° 0 mm 2 mps 613 mmHg 61%
    06:00 +24°C° 0 mm 1 mps 614 mmHg 56%
    07:00 +26°C° 0 mm 1 mps 615 mmHg 51%
    08:00 +28°C° 0 mm 2 mps 616 mmHg 40%
    09:00 +30°C° 0 mm 2 mps 616 mmHg 28%
    10:00 +32°C° 0 mm 2 mps 617 mmHg 17%
    11:00 +32°C° 0 mm 2 mps 617 mmHg 15%
    12:00 +34°C° 0 mm 3 mps 617 mmHg 14%
    13:00 +35°C° 0 mm 3 mps 616 mmHg 12%
    14:00 +35°C° 0 mm 4 mps 616 mmHg 11%
    15:00 +35°C° 0 mm 4 mps 616 mmHg 11%
    16:00 +36°C° 0 mm 5 mps 616 mmHg 10%
    17:00 +34°C° 0 mm 4 mps 615 mmHg 11%
    18:00 +31°C° 0 mm 3 mps 615 mmHg 12%
    19:00 +30°C° 0 mm 2 mps 614 mmHg 14%
    20:00 +29°C° 0 mm 2 mps 614 mmHg 17%
    21:00 +28°C° 0 mm 2 mps 614 mmHg 21%
    22:00 +27°C° 0 mm 2 mps 614 mmHg 25%
    23:00 +26°C° 0 mm 2 mps 614 mmHg 30%

    21 June, Friday

    Time Temperature Precipitation Wind Pressure Humidity
    00:00 +26°C° 0 mm 2 mps 614 mmHg 35%
    01:00 +25°C° 0 mm 2 mps 613 mmHg 40%
    02:00 +24°C° 0 mm 2 mps 613 mmHg 44%
    03:00 +24°C° 0 mm 2 mps 613 mmHg 49%
    04:00 +23°C° 0 mm 2 mps 613 mmHg 54%
    05:00 +24°C° 0 mm 2 mps 614 mmHg 50%
    06:00 +26°C° 0 mm 2 mps 615 mmHg 46%
    07:00 +27°C° 0 mm 2 mps 616 mmHg 42%
    08:00 +29°C° 0 mm 2 mps 617 mmHg 33%
    09:00 +31°C° 0 mm 3 mps 617 mmHg 24%
    10:00 +34°C° 0 mm 4 mps 618 mmHg 16%
    11:00 +35°C° 0 mm 4 mps 618 mmHg 14%
    12:00 +36°C° 0 mm 5 mps 617 mmHg 12%
    13:00 +37°C° 0 mm 5 mps 617 mmHg 10%
    14:00 +36°C° 0 mm 6 mps 617 mmHg 9%
    15:00 +36°C° 0 mm 6 mps 616 mmHg 9%
    16:00 +36°C° 0 mm 7 mps 616 mmHg 8%
    17:00 +34°C° 0 mm 5 mps 616 mmHg 9%
    18:00 +33°C° 0 mm 4 mps 615 mmHg 11%
    19:00 +30°C° 0 mm 2 mps 615 mmHg 12%
    20:00 +29°C° 0 mm 2 mps 615 mmHg 18%
    21:00 +28°C° 0 mm 2 mps 615 mmHg 24%
    22:00 +27°C° 0 mm 2 mps 615 mmHg 30%
    23:00 +26°C° 0 mm 2 mps 614 mmHg 35%

    22 June, Saturday

    Time Temperature Precipitation Wind Pressure Humidity
    00:00 +25°C° 0 mm 2 mps 614 mmHg 39%
    01:00 +25°C° 0 mm 2 mps 614 mmHg 43%
    02:00 +24°C° 0 mm 2 mps 613 mmHg 48%
    03:00 +24°C° 0 mm 2 mps 613 mmHg 52%
    04:00 +23°C° 0 mm 2 mps 613 mmHg 56%
    05:00 +24°C° 0 mm 2 mps 614 mmHg 54%
    06:00 +26°C° 0 mm 2 mps 615 mmHg 52%
    07:00 +27°C° 0 mm 2 mps 616 mmHg 50%
    08:00 +29°C° 0 mm 2 mps 616 mmHg 39%
    09:00 +30°C° 0 mm 3 mps 617 mmHg 29%
    10:00 +33°C° 0 mm 3 mps 618 mmHg 18%
    11:00 +34°C° 0 mm 3 mps 617 mmHg 17%
    12:00 +35°C° 0 mm 4 mps 617 mmHg 16%
    13:00 +36°C° 0 mm 4 mps 617 mmHg 15%
    14:00 +36°C° 0 mm 4 mps 617 mmHg 15%
    15:00 +36°C° 0 mm 5 mps 616 mmHg 15%
    16:00 +36°C° 0 mm 5 mps 616 mmHg 16%
    17:00 +34°C° 0 mm 4 mps 615 mmHg 19%
    18:00 +31°C° 0 mm 3 mps 615 mmHg 22%
    19:00 +30°C° 0 mm 2 mps 615 mmHg 25%
    20:00 +29°C° 0 mm 2 mps 615 mmHg 28%
    21:00 +28°C° 0 mm 2 mps 615 mmHg 32%
    22:00 +28°C° 0 mm 2 mps 614 mmHg 35%
    23:00 +27°C° 0 mm 2 mps 614 mmHg 36%

    23 June, Sunday

    Time Temperature Precipitation Wind Pressure Humidity
    00:00 +26°C° 0 mm 2 mps 614 mmHg 37%
    01:00 +26°C° 0 mm 2 mps 613 mmHg 38%
    02:00 +25°C° 0 mm 2 mps 613 mmHg 41%
    03:00 +24°C° 0 mm 2 mps 613 mmHg 43%
    04:00 +24°C° 0 mm 2 mps 613 mmHg 46%
    05:00 +25°C° 0 mm 1 mps 614 mmHg 44%
    06:00 +27°C° 0 mm 1 mps 615 mmHg 41%
    07:00 +28°C° 0 mm 1 mps 615 mmHg 39%
    08:00 +30°C° 0 mm 1 mps 616 mmHg 32%
    09:00 +31°C° 0 mm 2 mps 616 mmHg 24%
    10:00 +34°C° 0 mm 2 mps 617 mmHg 17%
    11:00 +35°C° 0 mm 3 mps 617 mmHg 17%
    12:00 +36°C° 0 mm 3 mps 617 mmHg 16%
    13:00 +36°C° 0 mm 4 mps 617 mmHg 16%
    14:00 +36°C° 0 mm 4 mps 616 mmHg 16%
    15:00 +36°C° 0 mm 4 mps 616 mmHg 17%
    16:00 +36°C° 0 mm 4 mps 615 mmHg 18%
    17:00 +34°C° 0 mm 4 mps 615 mmHg 21%
    18:00 +33°C° 0 mm 4 mps 614 mmHg 24%
    19:00 +31°C° 0 mm 3 mps 614 mmHg 27%
    20:00 +30°C° 0 mm 3 mps 614 mmHg 31%
    21:00 +29°C° 0 mm 3 mps 614 mmHg 35%
    22:00 +28°C° 0 mm 2 mps 614 mmHg 38%
    23:00 +28°C° 0 mm 2 mps 614 mmHg 40%
    Show more